Weather observations for the past three days for
San Diego, Brown Field Municipal Airport
Imperial (Metric)
Date Time (pdt) Wind (mph) Vis. (mi.) Weather Sky Cond. Temperature (ºF) Relative Humidity Wind Chill (°F) Heat Index (°F) Pressure Precipitation (in)
Air Dwpt 6 hour altimeter (in) sea level (mb) 1 hr 3 hr 6 hr
Max. Min.
15 04:53 W 5 9.00 Overcast OVC006 66 63 66.9 62.1 90% 30.04 1016.9
15 03:53 W 5 10.00 Overcast OVC006 66 63 90% 30.03 1016.3
15 02:53 W 6 10.00 Overcast OVC007 66 62.1 87% 30.02 1016.2
15 01:53 Calm 10.00 Partly Cloudy SCT006 64.9 62.1 90% 30.04 1016.6
15 00:53 W 3 10.00 Mostly Cloudy BKN007 64.9 62.1 90% 30.05 1016.9
14 23:53 W 3 10.00 Fair CLR 64.9 61 87% 30.04 1016.8
14 22:53 W 3 10.00 Fair CLR 66 61 75 64.9 84% 30.04 1016.6
14 21:53 W 6 10.00 Fair CLR 66 62.1 87% 30.03 1016.3
14 20:53 W 5 10.00 Fair CLR 66.9 61 81% 30.02 1016.1
14 19:53 W 8 10.00 Fair CLR 66.9 61 81% 30.01 1015.7
14 18:53 Vrbl 5 10.00 Fair CLR 71.1 61 71% 30.01 1015.8
14 17:53 NW 7 10.00 Fair CLR 73 62.1 69% 30.01 1015.6
14 16:53 Vrbl 7 10.00 Fair CLR 75 62.1 81 73.9 64% 77 30.01 1015.7
14 15:53 W 8 10.00 Fair CLR 77 63 62% 79 30.02 1016.0
14 14:53 W 9 10.00 Fair CLR 77 63 62% 79 30.03 1016.4
14 13:53 Vrbl 7 G 18 10.00 Fair CLR 78.1 63 60% 80 30.03 1016.5
14 12:53 W 12 G 17 10.00 Fair CLR 78.1 63 60% 80 30.04 1016.7
14 11:53 Vrbl 7 10.00 Fair CLR 81 64 57% 83 30.04 1016.6
14 10:53 Vrbl 5 10.00 Fair CLR 78.1 64 78.1 66 62% 80 30.05 1016.9
14 09:53 Calm 10.00 Partly Cloudy SCT011 73 63 71% 30.06 1017.3
14 08:53 Calm 8.00 Overcast OVC009 69.1 63 81% 30.08 1018.2
14 07:53 Calm 7.00 Overcast OVC007 68 63 84% 30.08 1018.1
14 06:53 Calm 7.00 Overcast OVC007 66.9 62.1 84% 30.06 1017.4
14 05:53 W 3 9.00 Overcast OVC007 66 62.1 87% 30.05 1017.0
14 04:53 W 3 10.00 Overcast OVC007 66 62.1 66 64 87% 30.03 1016.5
14 03:53 W 5 10.00 Overcast OVC007 66 62.1 87% 30.02 1015.9
14 02:53 W 5 10.00 Mostly Cloudy BKN006 64.9 62.1 90% 30 1015.3
14 01:53 W 3 10.00 Fair CLR 64.9 61 87% 30 1015.3
14 00:53 Calm 10.00 Fair CLR 66 61 84% 30 1015.3
13 23:53 W 3 10.00 Fair CLR 64.9 61 87% 30 1015.4
13 22:53 W 5 10.00 Fair CLR 64.9 61 77 64.9 87% 30 1015.3
13 21:53 W 3 10.00 Fair CLR 66 61 84% 29.99 1015.0
13 20:53 NW 5 10.00 Fair CLR 66.9 61 81% 29.97 1014.5
13 19:53 Vrbl 3 10.00 Fair CLR 69.1 61 76% 29.96 1014.2
13 18:53 NW 3 10.00 Fair CLR 72 61 68% 29.95 1013.9
13 17:53 NW 6 10.00 Fair CLR 75 61 62% 77 29.95 1013.7
13 16:53 Vrbl 6 10.00 Fair CLR 75.9 61 79 73.9 60% 78 29.96 1013.9
13 15:53 Vrbl 7 G 17 10.00 Fair CLR 75 61 62% 77 29.97 1014.2
13 14:53 W 13 G 16 10.00 A Few Clouds FEW010 75.9 61 60% 78 29.97 1014.5
13 13:53 W 13 G 18 10.00 Fair CLR 77 61 58% 79 29.97 1014.4
13 12:53 W 10 10.00 Fair CLR 79 62.1 56% 80 29.96 1014.2
13 11:53 W 9 7.00 Fair CLR 79 63 58% 81 29.97 1014.3
13 10:53 W 9 6.00 Fair with Haze CLR 77 62.1 77 64.9 60% 79 29.97 1014.4
13 09:53 Vrbl 6 6.00 Fair with Haze CLR 73 62.1 69% 29.98 1014.7
13 08:53 Calm 5.00 Overcast with Haze OVC007 68 62.1 81% 29.97 1014.6
13 07:53 Calm 4.00 Fog/Mist OVC005 66 62.1 87% 29.97 1014.4
13 06:53 W 3 3.00 Fog/Mist OVC004 64.9 62.1 90% 29.94 1013.5
13 05:53 Calm 4.00 Fog/Mist OVC005 64.9 62.1 90% 29.94 1013.3
13 04:53 W 3 6.00 Fog/Mist OVC005 64.9 61 66 64.9 87% 29.93 1013.0
13 03:53 W 5 6.00 Fog/Mist OVC005 64.9 61 87% 29.91 1012.2
13 02:53 Calm 9.00 Overcast OVC006 66 62.1 87% 29.88 1011.4
13 01:53 Calm 8.00 Overcast OVC006 64.9 62.1 90% 29.88 1011.4
13 00:53 Calm 9.00 Overcast OVC006 64.9 62.1 90% 29.89 1011.6
12 23:53 Calm 3.00 Fog/Mist OVC006 64.9 62.1 90% 29.9 1011.9
12 22:53 W 3 9.00 Overcast OVC006 64.9 61 71.1 64 87% 29.9 1012.0
12 21:53 W 3 10.00 Fair CLR 64.9 61 87% 29.89 1011.8
12 20:53 W 6 10.00 Fair CLR 64.9 61 87% 29.88 1011.3
12 19:53 NW 3 10.00 Fair CLR 66.9 61 81% 29.86 1010.8
12 18:53 NW 5 10.00 Fair CLR 69.1 62.1 78% 29.86 1010.6
12 17:53 W 5 10.00 Fair CLR 70 61 73% 29.85 1010.5
12 16:53 W 12 10.00 Fair CLR 71.1 61 80.1 71.1 71% 29.85 1010.4
12 15:53 Calm 10.00 Fair CLR 73.9 62.1 67% 29.89 1011.6
12 14:53 W 9 10.00 Fair CLR 73 61 66% 29.89 1011.6
12 13:53 NW 7 G 18 10.00 Fair CLR 79 63 58% 81 29.88 1011.1
12 12:53 W 8 10.00 Fair CLR 78.1 63 60% 80 29.88 1011.3
12 11:53 Vrbl 6 7.00 Fair CLR 78.1 63 60% 80 29.89 1011.6
12 10:53 NW 5 5.00 Fair with Haze CLR 73.9 63 73.9 63 69% 29.9 1012.1
12 09:53 Vrbl 3 4.00 Partly Cloudy with Haze SCT008 71.1 62.1 73% 29.9 1012.2
12 08:53 NW 5 3.00 Overcast with Haze OVC006 68 62.1 81% 29.91 1012.4
12 07:53 N 3 1.75 Fog/Mist OVC004 64.9 62.1 90% 29.92 1012.7
12 06:53 Calm 1.75 Fog/Mist OVC003 64 62.1 93% 29.91 1012.4
12 05:53 Calm 2.00 Fog/Mist OVC003 64 61 90% 29.9 1012.2
Date Time (pdt) Wind (mph) Vis. (mi.) Weather Sky Cond. Air Dwpt Max. Min. Relative Humidity Wind Chill (°F) Heat Index (°F) altimeter (in) sea level (mb) 1 hr 3 hr 6 hr
6 hour
Temperature (ºF) Pressure Precipitation (in)